AirNav   Textron
 
 1653 users online  

LS94 Alon USA - Krotz Springs Heliport
Krotz Springs, Louisiana, USA

GOING TO KROTZ SPRINGS?


FAA INFORMATION EFFECTIVE 14 SEPTEMBER 2017

Location

FAA Identifier: LS94
Lat/Long: 30-31-59.0000N / 091-45-00.4100W
30-31.983333N / 091-45.006833W
30.5330556 / -91.7501139
(estimated)
Elevation: 36 ft. / 11 m (estimated)
Variation: 02E (2000)
Time zone: UTC -5 (UTC -6 during Standard Time)
Zip code: 70582

Heliport Operations

Heliport use: Private use. Permission required prior to landing
Activation date: 11/2000
Control tower: no
ARTCC: HOUSTON CENTER
FSS: DE RIDDER FLIGHT SERVICE STATION
Attendance: UNATNDD
Wind indicator: yes
Segmented circle: yes
Lights: SS-SR

Heliport Communications

WX AWOS-3PT at HZR (18 nm NE): 121.250 (225-638-3107)
WX AWOS-3PT at OPL (18 nm W): 118.775 (337-948-8560)

Nearby radio navigation aids

VOR radial/distance  VOR name  Freq  Var
LSUr271/23.7FIGHTING TIGER VORTAC116.5006E
LFTr029/23.9LAFAYETTE VORTAC109.8003E

 
NDB name  Hdg/Dist  Freq  Var  ID
NEW ROADS242/14.735604EFWX ..-. .-- -..-
ABBEVILLE032/34.323002EBNZ -... -. --..
DURALDE091/36.126302EECY . -.-. -.--

Heliport Services

Runway Information

Helipad H1

Dimensions: 40 x 40 ft. / 12 x 12 m
Surface: concrete
Runway edge lights: PERI
Traffic pattern: leftleft

Heliport Ownership and Management from official FAA records

Ownership: Privately-owned
Owner: ALON USA
BOX 453 HWY 105 S.
KROTZ SPRINGS, LA 70750
Phone 337-566-0219
Manager: KENDALL LAKEY
BOX 453 HWY 105 S.
KROTZ SPRINGS, LA 70750
Phone 337-566-0219

Instrument Procedures

There are no published instrument procedures at LS94.

Some nearby airports with instrument procedures:

KHZR - False River Regional Airport (18 nm NE)
KOPL - St Landry Parish Airport-Ahart Field (18 nm W)
KLFT - Lafayette Regional Airport/Paul Fournet Field (23 nm SW)
KARA - Acadiana Regional Airport (31 nm S)
KBTR - Baton Rouge Metropolitan Airport, Ryan Field (31 nm E)
 
Loc | Ops | Rwys | IFR | FBO | Links
Com | Nav | Svcs | Stats | Notes


 
Area around LS94 (Alon USA - Krotz Springs Heliport)
 
Road maps at: MapQuest Bing Google
 
Aerial photo
No photo
 
Sectional chart

 
Airport distance calculator
Flying to Alon USA - Krotz Springs Heliport? Find the distance to fly.

From to LS94

Sunrise and sunset
Times for 21-Sep-2017
 Local
(UTC-5)
 Zulu
(UTC)
Morning civil twilight06:3211:32
Sunrise06:5611:56
Sunset19:0400:04
Evening civil twilight19:2800:28

Current date and time
Zulu (UTC)  21-Sep-2017 19:27:04
Local (UTC-5)  21-Sep-2017 14:27:04
 
METAR
KHZR 
18nm NE 
211915Z AUTO 07003KT 10SM SCT037 SCT045 SCT055 31/22 A3000 RMK AO2 T03130220
KOPL 
18nm W 
211915Z AUTO 07005KT 10SM SCT040 31/22 A2999 RMK AO2 T03130219
KLFT 
24nm SW 
211853Z 00000KT 10SM SCT033 33/21 A3000 RMK AO2 SLP156 T03280211
KARA 
31nm S 
211853Z 10003KT 10SM SCT047 BKN065 33/19 A2999 RMK AO2 SLP156 T03330194
KBTR 
31nm E 
211853Z 09004KT 10SM BKN040 33/22 A3000 RMK AO2 SLP158 T03280217
TAF
KLFT 
24nm SW 
211720Z 2118/2218 VRB05KT P6SM BKN025 FM220000 VRB03KT P6SM FEW250 TEMPO 2209/2213 5SM BR
NOTAMs
Click for the latest NOTAMs
NOTAMs are issued by the DoD/FAA and will open in a separate window not controlled by AirNav.

 

 
 

Would you like to see your business listed on this page?

 If your business provides an interesting product or service to pilots, flight crews, aircraft, or users of the Alon USA - Krotz Springs Heliport, you should consider listing it here.  To start the listing process, click on the button below
 
Add a business
 

Other Pages about Alon USA - Krotz Springs Heliport

Update a link
 
Copyright © AirNav, LLC. All rights reserved. Privacy Policy  Contact